Погода в Бердигестяхе

Россия / Республика Саха (Якутия)     62°05′49″N   126°41′59″E
темп.,
°C
ветер,
м/с
пор.,
м/с
влажн.,
%
обл.,
%
осадки,
мм/ч
давл.,
гПа
погр.,
м
27 февраля, сб
сб2700:00−28в3796100 0.0 1030174
03:00−30в389780 0.0 1029162
06:00−31в379655 0.0 1028137
09:00−29в389478 0.0 1027276
12:00−26в3695100 0.0 1025318
15:00−23в3694100 0.0 1021394
18:00−24в3698100 0.4 1021389
21:00−24всв2498100 1.1 1020287
28 февраля, вс
вс2800:00−25ссв2399100 0.6 1019167
03:00−26ссз2499100 1.1 1018235
06:00−26сз3798100 0.5 1020434
09:00−27зсз4897100 1.0 1021557
12:00−26зсз4896100 0.4 1023615
15:00−26зсз5994100 0.8 1024767
18:00−26зсз4995100 0.3 1026781
21:00−26зсз41095100 0.5 1027773
1 марта, пн
пн100:00−27зсз41096100 0.2 1027734
03:00−28зсз3996100 0.4 1027663
06:00−28зсз3996100 0.2 1028649
09:00−28зсз4994100 0.3 1028621
12:00−27зсз4893100 0.1 1028710
15:00−26зсз4792100 0.3 1028757
18:00−27з3796100 0.1 1028444
21:00−28з2797100 0.2 1028431
2 марта, вт
вт200:00−28з2697100 0.1 1028350
03:00−30з2498100 0.1 1028116
06:00−32з2298100 0.1 102836
09:00−32з139899 0.1 1027110
12:00−28з139298 0.0 1027430
15:00−26зсз128799 0.1 1026600
18:00−32ссз0097100 0.0 102619
21:00−35св119982 0.0 102719
3 марта, ср
ср300:00−36всв119958 0.0 102719
03:00−37св119969 0.0 102619
06:00−37ссв119868 0.0 102619
09:00−35с119775 0.0 102524
12:00−30ссз129197 0.0 1024317
15:00−28ссз239299 0.0 1022502
18:00−30сз2297100 0.0 102266
21:00−32зсз2697100 0.1 1022259